Regional Weather Roundup
Issued by NWS

Home | Current Version | Previous Version | Text Only | Print | Product List | Glossary On
Versions: 1 2 3 4 5 6 7 8 9 10 11 12 13 14 15 16 17 18 19 20 21 22 23 24 25 26 27 28 29 30 31 32 33 34 35 36 37 38 39 40 41 42 43 44 45 46 47 48 49 50
000
ASUS44 KMEG 190310
RWRTN
TENNESSEE HOURLY STATE WEATHER ROUNDUP
NATIONAL WEATHER SERVICE MEMPHIS TN
900 PM CST THU DEC 18 2014

TNZ002-004-019-021-049-052-054-088>092-190400-
WEST TENNESSEE

CITY           SKY/WX    TMP DP  RH WIND       PRES   REMARKS
MEMPHIS INTL   CLOUDY    45  36  70 NE6       30.23S
NWS MEMPHIS      N/A     43 N/A N/A MISG        N/A
JACKSON        CLOUDY    41  35  79 CALM      30.24R
DYERSBURG      CLOUDY    39  27  60 E5        30.26R
UNION CITY     CLOUDY    36  32  87 NE5       30.24R WCI  32
PARIS          CLOUDY    34  28  80 NE5       30.24S WCI  30
HUNTINGDON     CLOUDY    35  31  86 NE3       30.24S
LEXINGTON      CLOUDY    37  34  87 CALM      30.22R
SAVANNAH       CLOUDY    41  36  81 CALM      30.23S
$$

TNZ008-025-027-028-033-062-065-066-190400-
NORTH MIDDLE TENNESSEE

CITY           SKY/WX    TMP DP  RH WIND       PRES   REMARKS
NASHVILLE      CLOUDY    37  32  82 N5        30.24S WCI  33
CLARKSVILLE    CLOUDY    35  30  82 N3        30.24S
SMYRNA         CLOUDY    37  32  82 CALM      30.25S
COOKEVILLE     PTCLDY    36  32  87 CALM      30.19R
CROSSVILLE     CLOUDY    37  30  75 NW3       30.17S
$$

TNZ061-075-076-078-094-096-097-190400-
SOUTH MIDDLE TENNESSEE

CITY           SKY/WX    TMP DP  RH WIND       PRES   REMARKS
FAYETTEVILLE   CLEAR     36  32  87 N6        30.19S WCI  31
TULLAHOMA      CLEAR     32  30  93 CALM      30.20R
WINCHESTER     MOCLDY    37  36  93 CALM      30.20R
MCMINNVILLE    CLOUDY    37  34  87 CALM      30.19S
SHELBYVILLE    PTCLDY    34  34 100 CALM      30.23R
$$

TNZ017-018-042-046-047-190400-
NORTHEAST TENNESSEE

CITY           SKY/WX    TMP DP  RH WIND       PRES   REMARKS
TRI CITIES     CLOUDY    39  33  79 CALM      30.14R
ELIZABETHTON   CLOUDY    37  30  75 CALM      30.13S
$$

TNZ012-013-036-069-073-074-190400-
CENTRAL EAST TENNESSEE

CITY           SKY/WX    TMP DP  RH WIND       PRES   REMARKS
KNOXVILLE      CLOUDY    42  32  67 CALM      30.16F
OAK RIDGE      CLOUDY    42  28  57 CALM      30.19S
GATLINBURG     CLOUDY    41  30  65 CALM      30.16S
MORRISTOWN     CLOUDY    41  30  65 NW3       30.16R
$$

TNZ083-085-099-190400-
SOUTHEAST TENNESSEE

CITY           SKY/WX    TMP DP  RH WIND       PRES   REMARKS
CHATTANOOGA    CLOUDY    45  36  70 N5        30.19S
$$

SKY/WX REPORTED AS FAIR MEANS FEW OR NO CLOUDS BELOW
12 THOUSAND FEET.




USA.gov is the U.S. government's official web portal to all federal, state and local government web resources and services.